sat.trackr.live / text

‹ back to catalog

STARLINK-36112

NORAD 66944 · 2025-286V

PAYLOAD ACTIVE UNKNOWN

§ Identity

Operator
Country
US
Launch date
2025-12-07
Launch site
AFWTR
Launch vehicle
Mass (kg)
RCS (m²)

Purposes: comms

External: N2YO · Heavens-Above · Gunter

§ Orbital elements

Epoch: 2026-09-20T04:32:56.395104Z

Period
93.85 min
Inclination
53.1572°
Eccentricity
0.0001859
Mean motion
15.34414946 rev/d
Perigee alt
461.4 km
Apogee alt
463.9 km
Semi-major
6,840.8 km
B*
7.4834e-4
RAAN
170.8993°
Arg perigee
77.9978°
Mean anomaly
282.1233°
Rev number
4,525

§ Raw data

STARLINK-361121 66944U 25286V   26263.18954161  .00025004  00000+0  74834-3 0  99952 66944  53.1572 170.8993 0001859  77.9978 282.1233 15.34414946 45259

JSON: /api/v1/satellites/66944 · /tle

For live sub-satellite position, see the globe view (requires WebGL).

§ Visibility from observer

Set your observer location to see the next 7 days of passes ≥ 10°. The values pass through the URL so the page stays shareable.

No JS? Fill the form by hand. The geolocation button needs JavaScript.